Temperature
13 13 13 13 13 12 12 12 12 12 11 11 11 11 11 11 11 10 10 10 9 9 8 7 7 7 6 6 5 5 5 4 4 4 4 4 4 4 4 4 4 4 3
12 12 12 12 12 11 11 11 11 11 11 11 10 10 10 10 10 10 9 9 8 8 7 7 6 6 5 5 4 4 4 4 3 3 3 3 3 3 3 3 3 3 3
11 11 11 11 11 10 10 10 10 10 10 10 10 9 9 9 9 9 8 8 8 7 6 6 5 5 4 4 3 3 3 3 3 3 3 3 3 3 3 3 3 2 2
10 10 10 10 9 9 9 9 9 9 9 9 9 9 9 8 8 8 8 7 7 6 6 5 4 3 3 3 3 3 2 2 2 2 2 2 3 2 2 2 2 2 2
9 9 9 9 8 8 8 8 8 8 8 8 8 8 8 8 7 7 7 6 6 5 4 3 3 2 2 2 2 2 2 2 2 2 2 2 2 2 2 2 1 1 1
9 9 8 8 8 8 8 7 8 8 8 7 7 7 7 7 6 6 6 5 5 4 3 2 2 2 2 1 2 2 1 2 2 1 1 1 1 1 1 1 1 1 1
8 8 8 7 7 7 7 7 7 7 7 7 7 6 6 6 5 5 5 4 3 3 2 2 1 1 1 1 1 1 1 1 1 1 1 1 1 1 1 1 1 0 0
8 7 7 7 7 6 6 6 6 6 6 6 6 6 5 5 5 4 4 3 3 2 1 1 1 1 1 1 1 1 1 1 1 1 1 1 1 1 0 0 0 0 -0
7 7 7 7 6 6 6 6 6 6 5 5 5 5 5 4 4 3 3 2 2 1 1 1 0 0 0 0 0 0 0 0 0 0 0 0 0 0 0 -0 -0 -0 -0
7 6 6 6 6 6 5 5 5 5 5 4 4 4 4 4 3 2 2 1 1 1 0 0 0 -0 -0 -0 -0 -0 -0 -0 -0 0 -0 -0 -0 -0 -0 -0 -0 -1 -1
6 6 5 5 5 5 5 5 4 4 4 4 4 4 3 3 2 2 1 1 1 0 0 -0 -0 -1 -1 -1 -1 -1 -1 -1 -0 -1 -1 -1 -1 -1 -1 -1 -1 -1 -1
5 5 5 5 4 4 4 4 4 3 3 3 3 3 3 2 2 1 1 0 0 -0 -0 -0 -1 -1 -1 -1 -1 -1 -1 -1 -1 -1 -1 -1 -1 -1 -1 -1 -1 -1 -1
4 4 4 4 4 4 4 3 3 3 3 3 3 3 3 2 1 1 0 -0 -0 -0 -0 -1 -1 -1 -1 -1 -1 -1 -1 -1 -1 -1 -1 -2 -2 -2 -2 -2 -2 -2 -2
3 3 3 3 3 3 3 3 2 2 2 2 2 2 2 2 1 1 0 -0 -0 -1 -1 -1 -1 -1 -1 -1 -1 -2 -1 -1 -1 -1 -2 -2 -2 -2 -2 -2 -2 -2 -2
2 2 2 2 2 2 2 2 2 2 2 2 2 2 1 2 1 1 0 -0 -0 -1 -1 -1 -1 -1 -1 -1 -1 -1 -1 -2 -1 -2 -2 -2 -2 -2 -2 -2 -3 -3 -2
1 1 1 1 1 1 1 1 1 1 1 1 1 1 1 1 1 0 0 -0 -1 -1 -1 -1 -1 -1 -1 -1 -1 -1 -1 -1 -2 -2 -2 -2 -2 -2 -3 -3 -3 -3 -3
0 0 0 0 0 0 0 0 1 1 1 1 1 1 1 0 0 0 -0 -0 -1 -1 -1 -1 -1 -1 -1 -1 -1 -1 -1 -2 -2 -2 -2 -2 -3 -3 -3 -3 -3 -3 -3
-1 -1 -1 -1 -1 -1 -1 -0 -0 -0 0 0 0 0 0 0 -0 -0 -1 -1 -1 -1 -1 -1 -1 -1 -1 -1 -1 -1 -2 -2 -2 -2 -2 -2 -3 -3 -3 -3 -3 -4 -4
-1 -1 -1 -1 -1 -1 -1 -1 -1 -1 -1 -0 -0 -0 -0 -0 -1 -1 -1 -1 -1 -1 -1 -1 -1 -1 -1 -1 -1 -2 -2 -2 -2 -2 -3 -3 -3 -3 -3 -3 -4 -4 -4
-2 -2 -2 -2 -2 -2 -2 -2 -1 -1 -1 -1 -1 -1 -1 -1 -1 -1 -1 -1 -1 -1 -1 -1 -1 -1 -1 -1 -2 -2 -2 -2 -2 -3 -3 -3 -3 -4 -4 -4 -4 -4 -5
-3 -3 -3 -3 -3 -3 -3 -3 -2 -2 -2 -2 -2 -1 -1 -1 -1 -1 -1 -1 -1 -1 -1 -1 -1 -1 -1 -2 -2 -2 -2 -2 -2 -3 -3 -3 -3 -4 -4 -4 -5 -5 -5
-4 -4 -4 -4 -4 -3 -3 -3 -3 -3 -3 -2 -2 -2 -2 -2 -2 -2 -2 -1 -1 -1 -2 -2 -2 -2 -2 -2 -2 -2 -2 -2 -3 -3 -3 -3 -4 -4 -5 -5 -5 -5 -6
-4 -4 -4 -4 -4 -4 -4 -4 -4 -4 -3 -3 -3 -3 -3 -2 -2 -2 -2 -2 -2 -2 -2 -2 -2 -2 -2 -2 -3 -3 -3 -3 -3 -3 -4 -4 -4 -5 -5 -5 -5 -6 -6
-5 -5 -5 -5 -5 -5 -5 -5 -4 -4 -4 -4 -4 -3 -3 -3 -3 -3 -3 -3 -3 -3 -3 -3 -3 -3 -3 -3 -3 -3 -3 -4 -4 -4 -4 -5 -5 -5 -5 -6 -6 -6 -6
-6 -6 -6 -6 -5 -5 -5 -5 -5 -5 -5 -5 -4 -4 -4 -4 -4 -4 -4 -4 -4 -4 -3 -3 -3 -3 -4 -4 -4 -4 -4 -4 -4 -5 -5 -6 -6 -6 -6 -6 -6 -7 -7
-6 -6 -6 -6 -6 -6 -6 -6 -6 -6 -5 -5 -5 -5 -5 -5 -4 -4 -4 -4 -4 -4 -4 -4 -4 -4 -4 -4 -4 -4 -5 -5 -5 -6 -6 -6 -6 -6 -7 -7 -7 -7 -8
Wind_Speed
2 3 4 4 5 6 6 6 7 6 7 8 7 7 6 5 5 4 3 2 1 1 1 1 1 1 1 0 0 1 2 2 4 1 1 1 2 2 3 6 7 8 8
2 3 4 4 5 6 6 7 7 8 7 7 7 7 6 5 4 4 3 2 2 1 1 1 1 1 1 0 0 1 1 2 2 2 2 1 1 2 2 3 5 6 8
3 4 4 5 5 6 7 7 7 8 7 7 7 6 5 5 4 4 3 3 2 1 1 2 2 2 1 1 1 1 1 1 1 2 2 1 1 1 2 2 3 4 5
3 4 5 5 6 6 6 6 7 7 7 7 6 6 5 5 4 4 3 3 2 1 1 1 1 2 2 2 1 1 1 1 1 1 1 1 1 1 2 2 1 2 2
3 4 5 5 6 6 6 6 6 6 6 6 6 5 5 4 4 4 4 3 3 2 1 1 1 2 3 2 1 1 1 1 1 1 1 2 2 2 2 1 1 1 2
4 5 4 5 6 6 7 7 6 6 6 6 6 6 5 3 5 6 5 3 3 3 2 1 1 1 1 2 2 1 1 2 2 2 2 2 2 2 2 2 2 2 0
4 4 5 6 7 6 7 7 7 6 6 6 5 5 5 4 5 5 5 4 4 3 3 3 1 2 3 3 4 5 5 4 1 3 3 3 3 4 4 3 2 2 1
4 4 5 6 7 6 7 7 6 5 5 5 5 5 4 4 6 6 5 4 3 3 3 3 3 3 3 3 3 2 3 3 3 2 2 2 2 3 4 4 3 3 1
4 4 5 6 7 7 8 7 6 5 5 5 5 6 6 5 6 7 6 4 3 3 3 3 4 4 5 5 4 3 1 2 3 5 5 5 5 6 7 4 3 2 1
5 4 5 6 7 8 8 7 5 5 6 6 5 6 6 6 7 8 8 4 4 3 3 3 6 6 7 7 5 5 4 2 1 3 4 5 5 4 4 3 4 3 2
3 3 4 5 6 7 6 6 6 6 6 6 6 5 6 7 8 10 10 5 5 4 4 4 4 8 8 8 7 6 6 4 3 3 2 2 2 2 3 3 4 3 3
2 3 4 4 5 5 6 6 6 7 7 6 5 5 5 6 8 10 12 11 9 6 5 4 5 9 9 9 7 8 8 5 4 3 2 2 2 2 1 2 3 3 3
2 3 3 3 4 5 6 7 6 6 6 6 6 6 6 5 7 13 14 14 14 8 6 9 9 10 10 7 9 10 7 4 4 4 4 3 3 3 3 2 2 2 2
3 3 3 3 4 5 5 6 7 7 7 7 7 7 6 5 6 6 6 7 11 9 6 8 11 11 8 7 7 5 4 5 5 4 4 3 3 3 3 3 3 2 1
4 3 3 4 4 5 6 7 8 8 8 8 7 7 7 7 9 12 9 7 6 6 5 4 4 3 4 4 4 4 4 4 5 4 4 4 4 4 3 3 3 3 3
4 4 3 3 4 4 5 5 10 10 13 14 12 9 8 11 10 12 15 15 15 13 8 5 6 7 7 7 7 6 6 6 6 6 5 5 5 5 4 4 3 4 4
5 5 4 4 4 4 4 5 5 7 12 14 15 16 14 13 13 13 13 14 15 15 9 7 7 8 7 7 7 7 7 7 6 6 6 6 6 5 5 5 5 4 5
6 6 5 5 4 5 5 5 5 5 5 5 9 15 15 15 14 13 13 11 9 10 7 8 8 8 8 8 8 7 7 6 6 7 7 6 7 6 5 5 6 6 6
6 5 5 5 5 5 5 5 5 6 6 5 4 6 11 13 13 14 13 8 7 8 8 8 8 8 8 8 8 8 8 7 7 7 7 8 7 7 7 7 7 10 8
6 8 7 5 5 5 5 5 5 5 5 5 6 5 4 5 5 7 8 7 7 8 8 8 8 8 8 8 8 8 8 8 8 8 8 8 8 7 8 9 8 7 7
5 6 8 6 5 5 5 5 5 5 5 6 6 6 8 6 6 7 7 7 8 8 8 8 8 7 8 7 8 9 9 8 8 8 8 8 8 8 7 7 8 8 7
5 5 5 5 5 5 5 5 5 5 5 6 5 6 10 6 5 6 6 6 6 6 6 6 6 7 7 7 8 8 9 9 8 8 8 8 8 8 8 8 8 7 7
5 6 6 5 5 7 7 5 5 5 5 5 5 4 4 5 5 5 5 5 4 4 4 5 5 5 5 6 7 7 8 8 8 8 9 8 8 8 8 8 9 9 8
5 6 6 5 5 5 5 5 5 5 4 4 4 4 4 4 4 4 4 3 3 3 3 4 4 6 6 6 7 8 9 9 10 9 10 9 9 8 8 8 8 9 9
5 6 6 5 5 5 5 5 5 4 4 4 3 3 3 3 3 2 2 2 3 3 4 4 4 5 6 7 7 7 10 12 11 10 9 8 8 9 8 8 8 7 8
5 6 5 5 5 5 5 5 4 4 3 3 2 2 2 2 2 2 2 2 3 3 3 3 4 5 6 6 8 9 11 12 13 13 10 7 8 8 8 7 8 8 8
Wind_Direction
130 130 131 130 131 133 136 138 135 131 134 134 132 128 124 118 113 113 122 131 145 156 152 176 178 156 168 244 272 261 257 252 256 191 116 116 118 110 85 79 72 62 55
141 135 136 132 128 128 130 132 131 130 130 130 129 126 125 121 117 121 127 124 142 167 180 170 182 159 167 213 255 261 264 265 242 218 171 146 129 125 107 86 67 61 53
141 141 140 141 140 139 138 134 132 131 127 125 126 127 127 126 124 128 136 134 134 151 184 196 194 173 193 207 228 256 273 275 253 201 171 132 113 111 100 80 69 49 49
155 159 165 166 158 149 142 139 138 136 134 134 131 132 134 134 134 136 134 130 126 127 148 170 176 184 200 202 214 255 270 264 225 163 149 135 125 110 114 117 96 46 34
175 181 186 169 152 145 144 143 140 138 138 137 133 131 133 137 149 151 149 150 154 151 140 136 162 178 194 188 185 213 208 203 180 171 160 145 154 148 155 134 136 79 48
199 199 181 162 157 158 156 150 144 139 138 138 144 147 152 161 172 173 164 161 168 172 176 160 120 97 105 104 95 108 152 179 195 188 186 188 185 170 140 138 128 118 220
212 199 182 172 170 170 161 156 157 156 152 152 158 160 168 185 193 191 181 164 171 182 188 183 172 138 102 86 76 58 43 40 132 180 190 199 184 180 157 143 141 146 170
217 204 190 180 178 170 166 171 168 160 163 167 172 172 176 202 208 203 188 154 162 184 196 193 186 174 168 152 129 87 47 25 38 83 168 182 172 155 153 149 141 116 90
229 218 202 189 182 177 181 182 174 168 172 174 174 178 186 207 213 206 177 148 170 196 204 199 196 198 210 189 158 150 108 11 53 93 106 115 127 141 138 117 119 111 143
247 232 208 194 190 192 192 184 176 176 182 176 182 187 191 203 215 212 190 164 183 203 212 218 220 215 220 206 172 174 192 209 120 79 74 69 67 91 123 134 145 138 154
262 228 206 200 200 197 187 179 174 175 174 181 190 198 201 210 220 222 210 182 191 199 209 214 224 228 226 219 195 190 211 193 167 151 127 101 78 76 86 116 139 147 159
260 230 217 207 199 189 182 180 177 176 182 191 200 212 214 216 219 226 226 219 205 198 208 208 218 230 231 228 215 206 217 191 154 160 171 187 190 190 166 143 147 151 161
285 254 236 213 202 190 186 184 183 188 195 200 206 218 220 211 220 226 229 231 224 209 208 216 221 228 229 232 228 219 209 172 166 185 202 209 202 186 155 138 129 133 132
282 265 240 220 214 202 197 193 194 199 204 207 212 219 218 212 213 215 220 230 232 224 212 220 225 228 221 218 227 227 189 178 185 197 203 197 166 161 172 170 167 158 165
289 272 251 233 225 219 215 212 210 213 210 208 212 210 211 223 224 213 205 211 207 204 178 174 185 193 204 201 202 204 193 193 204 189 191 189 189 186 188 174 171 165 181
290 280 265 251 241 232 230 235 228 226 229 227 222 216 222 229 231 223 220 221 220 212 197 193 203 208 213 213 213 211 206 206 204 198 197 198 198 196 194 181 178 186 204
281 278 273 262 252 243 236 236 246 239 236 236 235 233 232 233 234 232 227 224 222 215 211 206 210 213 215 213 212 212 214 209 199 200 204 204 201 197 194 196 195 200 213
286 276 269 262 255 248 241 240 239 239 240 242 238 238 237 236 234 231 228 221 221 217 211 212 213 213 213 214 215 216 216 206 202 205 205 203 200 197 199 202 202 205 212
291 281 271 267 261 257 249 241 239 239 241 243 234 237 237 238 236 233 225 215 211 214 215 216 216 214 213 213 213 213 211 210 206 203 205 204 201 199 205 207 207 218 216
289 285 281 274 269 264 257 249 242 239 239 239 237 233 216 214 221 222 219 213 214 217 216 218 218 215 213 213 212 211 212 212 209 209 208 204 200 200 206 205 206 209 214
286 287 286 280 272 268 263 258 254 248 244 244 242 235 223 217 222 220 218 218 218 219 218 217 217 216 215 212 211 211 212 214 211 209 207 204 200 203 205 205 206 208 210
282 281 278 275 272 268 267 261 257 255 252 252 254 250 244 231 223 224 222 221 221 221 216 213 216 215 212 211 211 211 214 216 212 208 207 203 201 202 200 202 205 205 207
281 283 281 278 275 275 275 268 264 261 259 255 255 249 241 230 228 227 226 224 218 216 211 211 217 219 214 212 211 212 216 216 210 203 202 202 202 202 201 204 204 203 208
277 278 278 279 279 275 273 272 268 265 262 261 258 253 245 237 234 233 230 225 218 215 212 212 219 223 219 215 217 219 222 218 207 204 200 200 201 201 201 205 207 209 209
272 272 272 269 270 274 276 277 275 271 267 264 262 261 255 245 239 237 238 234 231 229 229 225 226 228 230 228 225 223 225 222 215 207 200 202 203 201 200 202 204 206 207
268 268 270 268 265 266 269 272 274 274 274 274 271 266 263 258 253 245 239 235 236 237 239 235 234 234 234 234 234 234 234 232 226 218 207 202 202 203 200 203 202 205 206
Height
1474 1475 1477 1479 1480 1482 1484 1486 1488 1491 1493 1495 1497 1498 1500 1501 1501 1502 1502 1502 1502 1502 1502 1502 1501 1501 1501 1500 1500 1500 1501 1501 1500 1500 1500 1501 1501 1502 1502 1502 1502 1502 1502
1471 1472 1473 1475 1477 1478 1480 1482 1484 1486 1489 1491 1492 1494 1495 1496 1496 1497 1497 1497 1497 1497 1497 1496 1496 1496 1495 1495 1495 1496 1496 1496 1496 1496 1496 1497 1497 1498 1498 1499 1498 1499 1499
1468 1469 1470 1472 1473 1475 1477 1478 1480 1483 1484 1486 1488 1489 1490 1491 1491 1492 1492 1492 1492 1492 1491 1491 1491 1490 1490 1490 1490 1491 1491 1491 1492 1492 1492 1493 1493 1494 1494 1495 1495 1495 1495
1465 1466 1467 1468 1470 1471 1473 1475 1477 1479 1481 1482 1483 1485 1486 1487 1487 1487 1487 1487 1487 1486 1486 1486 1486 1486 1486 1486 1486 1486 1487 1487 1487 1488 1488 1489 1490 1490 1491 1491 1491 1492 1492
1462 1463 1464 1465 1466 1468 1470 1472 1474 1475 1477 1478 1480 1480 1481 1482 1482 1482 1482 1482 1481 1481 1481 1481 1481 1481 1481 1482 1482 1482 1483 1483 1484 1484 1485 1485 1486 1487 1487 1488 1488 1489 1489
1459 1459 1460 1461 1462 1464 1466 1468 1470 1471 1473 1474 1475 1476 1477 1477 1477 1477 1477 1477 1477 1476 1477 1477 1477 1477 1478 1478 1478 1479 1479 1480 1480 1480 1481 1482 1482 1483 1483 1484 1485 1485 1486
1455 1456 1456 1457 1459 1461 1463 1464 1466 1467 1469 1470 1471 1472 1472 1473 1473 1473 1472 1472 1472 1472 1473 1473 1474 1474 1474 1475 1475 1475 1476 1476 1477 1477 1478 1478 1479 1480 1480 1481 1481 1482 1483
1452 1452 1453 1454 1455 1457 1459 1460 1462 1463 1464 1466 1466 1467 1468 1468 1468 1468 1468 1468 1468 1469 1469 1470 1470 1471 1471 1472 1472 1472 1473 1473 1473 1474 1475 1475 1476 1477 1477 1478 1478 1479 1480
1448 1448 1449 1450 1451 1453 1454 1456 1457 1459 1460 1461 1462 1462 1463 1463 1464 1464 1464 1464 1464 1465 1466 1466 1467 1468 1468 1468 1469 1469 1470 1470 1470 1471 1472 1472 1473 1474 1475 1475 1476 1477 1477
1445 1445 1446 1446 1447 1448 1450 1452 1453 1454 1455 1456 1457 1458 1458 1459 1459 1459 1459 1460 1460 1461 1462 1463 1464 1464 1465 1465 1466 1466 1467 1468 1468 1468 1469 1470 1470 1471 1472 1473 1474 1475 1475
1441 1441 1442 1442 1443 1444 1445 1447 1448 1449 1450 1451 1452 1453 1453 1454 1454 1454 1455 1455 1456 1457 1458 1459 1460 1461 1461 1462 1463 1464 1464 1465 1465 1466 1467 1467 1468 1469 1470 1470 1471 1472 1473
1437 1437 1437 1438 1438 1439 1440 1441 1442 1443 1444 1445 1446 1447 1448 1448 1449 1450 1450 1451 1452 1453 1454 1455 1456 1457 1458 1459 1460 1460 1461 1462 1463 1463 1464 1465 1466 1467 1467 1468 1469 1470 1471
1433 1433 1433 1433 1433 1434 1435 1436 1437 1438 1439 1439 1440 1441 1442 1443 1444 1445 1446 1446 1447 1448 1450 1451 1452 1453 1454 1455 1456 1457 1458 1459 1459 1460 1461 1462 1463 1464 1464 1465 1466 1467 1468
1429 1429 1428 1428 1428 1429 1429 1430 1431 1432 1433 1434 1435 1436 1437 1437 1438 1439 1440 1442 1443 1444 1445 1447 1448 1449 1450 1451 1452 1453 1454 1455 1456 1457 1458 1459 1460 1461 1461 1462 1463 1464 1465
1425 1425 1424 1423 1423 1423 1424 1424 1425 1426 1427 1428 1429 1430 1431 1432 1433 1434 1435 1436 1438 1440 1441 1442 1443 1445 1446 1447 1448 1449 1451 1452 1452 1454 1455 1455 1456 1457 1458 1459 1459 1460 1461
1421 1420 1419 1419 1418 1418 1418 1419 1419 1420 1421 1422 1423 1424 1425 1426 1427 1428 1429 1431 1433 1434 1435 1436 1438 1439 1441 1442 1444 1445 1446 1447 1448 1449 1450 1451 1452 1453 1454 1454 1455 1456 1456
1417 1416 1415 1414 1413 1413 1413 1413 1413 1414 1415 1416 1417 1418 1419 1420 1422 1423 1424 1426 1427 1429 1430 1430 1432 1434 1435 1437 1438 1440 1441 1442 1443 1444 1445 1446 1447 1448 1449 1449 1450 1451 1451
1412 1411 1410 1409 1408 1408 1408 1408 1408 1408 1409 1409 1411 1412 1413 1414 1416 1417 1419 1420 1421 1423 1423 1425 1426 1428 1430 1431 1432 1434 1435 1436 1437 1438 1439 1440 1441 1442 1443 1444 1444 1445 1446
1407 1406 1405 1404 1403 1403 1402 1402 1402 1402 1403 1403 1404 1406 1407 1408 1409 1411 1412 1413 1414 1416 1417 1419 1420 1422 1423 1425 1426 1427 1428 1429 1430 1431 1432 1433 1434 1435 1436 1437 1438 1439 1440
1402 1401 1400 1399 1398 1397 1397 1397 1396 1396 1397 1397 1398 1399 1400 1401 1402 1404 1405 1406 1408 1409 1411 1412 1414 1415 1416 1418 1419 1420 1421 1422 1423 1424 1425 1426 1427 1428 1429 1431 1432 1433 1433
1397 1396 1395 1393 1392 1392 1391 1391 1391 1391 1391 1391 1392 1393 1394 1394 1395 1397 1398 1399 1400 1402 1403 1405 1406 1408 1409 1410 1411 1412 1413 1415 1416 1417 1418 1419 1420 1421 1422 1424 1425 1425 1426
1392 1390 1389 1388 1387 1386 1386 1385 1385 1385 1385 1385 1386 1387 1387 1388 1389 1390 1391 1393 1394 1395 1397 1398 1399 1400 1402 1403 1404 1405 1406 1407 1408 1409 1410 1411 1412 1414 1415 1416 1417 1418 1419
1387 1386 1384 1383 1382 1381 1380 1380 1380 1379 1379 1379 1380 1381 1381 1382 1383 1384 1385 1386 1387 1388 1389 1390 1391 1392 1394 1395 1396 1397 1398 1399 1400 1401 1402 1403 1404 1406 1407 1408 1409 1411 1412
1383 1381 1379 1378 1377 1376 1376 1375 1374 1374 1374 1374 1374 1375 1375 1376 1377 1378 1379 1380 1380 1381 1382 1383 1384 1385 1386 1387 1388 1389 1390 1391 1392 1393 1394 1395 1396 1398 1399 1400 1402 1403 1404
1378 1376 1375 1373 1372 1371 1371 1370 1369 1369 1369 1369 1369 1369 1370 1370 1371 1372 1372 1373 1374 1374 1375 1376 1377 1377 1378 1379 1380 1381 1382 1383 1384 1385 1386 1387 1389 1390 1391 1393 1394 1396 1397
1373 1372 1370 1369 1368 1367 1366 1365 1365 1365 1364 1364 1364 1364 1364 1365 1365 1366 1366 1367 1367 1368 1368 1369 1370 1370 1371 1371 1372 1373 1374 1375 1376 1377 1379 1380 1381 1383 1384 1386 1387 1389 1390